Weather in Tiraspol

Moldova     46°50′09″N   29°36′23″E
temp.,
°C
wind,
m/s
gust,
m/s
humid.,
%
clouds,
%
prec.,
mm/h
press.,
hPa
HPBL,
m
24 january, mon
mon2423:00−4nne5108088 0.0 1026502
02:00−4n6108297 0.0 1028627
05:00−4nnw71180100 0.0 1028659
08:00−5nnw71273100 0.0 1029665
11:00−3n81163100 0.0 1030813
14:00−1nnw91153100 0.0 10291138
17:00−2nnw81355100 0.0 10291063
20:00−4nnw81483100 0.1 1030903
25 january, tue
tue2523:00−5nnw81390100 0.6 1029742
02:00−5nnw71292100 1.6 1029662
05:00−6nnw61290100 0.8 1028598
08:00−6nnw6128384 1.2 1028571
11:00−4nnw696685 0.0 1028664
14:00−2nnw575454 0.0 1026788
17:00−5nw22695 0.0 102522
20:00−7w22788 0.0 102415
26 january, wed
wed2623:00−7wsw227983 0.0 102321
02:00−6wsw2378100 0.0 102274
05:00−5wsw2597100 0.3 1020171
08:00−3wsw3996100 1.1 1019355
11:00+1nw51097100 0.5 1018628
14:00+1nnw51097100 1.1 1018763
17:00−1nnw7128793 0.3 1021673
20:00−1nnw51086100 0.4 1023468
27 january, thu
thu2723:00−3nnw6108499 0.1 1024428
02:00−5nnw49868 0.1 1024326
05:00−5wnw1289100 0.0 102453
08:00−6wsw24925 0.0 102463
11:00−2w457689 0.0 1023392
14:00+1wsw587584 0.1 1021643
17:000wsw487887 0.1 1020197
20:00−1wsw3774100 0.1 1019139
28 january, fri
fri2823:00−1ssw31073100 0.0 1017177
02:000sw4107486 0.0 1016213
05:00−1sw3880100 0.0 1014168
08:00−1sw248298 0.0 101470
11:00+3w1265100 0.0 1014157
14:00+4wsw368597 0.2 1014328
17:00+2ssw338999 0.0 101423
20:000wsw48805 0.0 1015113